EHI
3 3 2 1 1 3 3 1 1 0 0 0 0 1 2 2 2 2 3 9 19 28 30 24 18 15 13 12 12 13 12 11 9 8 5 2 2 2 2 2 1 0 0
2 2 1 0 0 1 1 1 1 0 0 0 0 0 1 1 1 2 4 9 17 27 31 27 21 18 16 15 15 14 14 12 10 8 7 4 2 2 2 1 0 0 0
1 1 0 0 0 0 0 0 1 0 0 0 0 0 0 0 1 2 4 6 12 20 26 28 26 23 21 18 16 16 16 15 12 10 8 7 5 3 3 2 1 0 0
1 0 0 0 0 0 0 1 1 1 0 0 0 0 0 0 1 1 2 3 5 9 16 24 28 27 24 20 17 17 17 16 14 11 8 8 7 6 4 3 1 1 1
3 2 1 0 0 0 0 1 1 1 0 0 0 0 0 0 1 1 1 1 1 2 7 16 22 26 26 23 19 17 16 15 14 11 8 7 8 7 5 4 3 3 3
6 3 1 0 0 0 0 0 0 0 0 0 0 0 0 0 1 1 1 1 1 1 4 7 12 17 21 22 20 18 15 13 11 9 8 7 7 5 4 4 4 4 3
9 5 2 1 0 0 0 0 0 0 0 0 0 0 0 0 0 0 1 2 2 3 4 4 5 8 11 14 17 17 15 11 8 8 8 8 7 5 3 2 2 2 2
12 9 5 4 2 2 1 1 0 0 0 0 0 0 0 0 0 0 0 1 2 2 2 3 3 4 6 8 11 13 13 11 8 7 8 9 9 7 3 1 0 0 1
16 13 10 7 5 4 3 2 1 1 1 1 0 0 0 0 0 0 0 0 0 0 1 1 2 4 5 6 8 9 11 12 10 8 8 9 10 8 5 2 0 0 0
16 14 12 10 8 6 4 2 2 3 4 2 1 1 1 1 0 0 0 0 0 0 0 0 2 5 7 8 7 5 7 10 10 9 9 9 9 7 4 2 0 0 0
13 13 12 11 10 9 7 4 2 3 3 2 2 3 3 2 0 0 0 0 0 0 0 0 1 4 7 7 5 3 4 6 6 7 9 8 7 5 3 1 0 0 0
11 12 13 12 11 11 10 7 5 3 2 1 2 4 5 4 2 1 0 0 0 0 0 0 0 2 3 4 3 3 4 3 2 3 4 4 3 3 2 0 0 0 0
11 12 13 13 12 11 10 9 7 5 3 2 4 5 6 6 4 3 2 1 0 0 0 0 0 0 1 1 2 3 3 2 1 0 1 1 1 1 1 0 0 0 0
10 11 12 12 12 13 12 10 8 6 4 5 6 6 6 5 5 6 4 2 0 0 0 0 0 0 0 0 0 1 1 1 0 0 0 0 0 0 0 0 0 0 0
9 10 11 11 13 15 15 13 10 8 6 6 6 6 5 4 4 5 4 2 0 0 0 0 0 0 0 0 0 0 0 0 0 0 0 0 0 0 0 0 0 0 0
10 11 12 12 14 16 17 16 13 11 8 7 6 6 5 4 4 4 3 1 0 0 0 0 0 0 0 0 0 0 0 0 0 0 0 0 0 0 0 0 0 0 0
11 12 13 13 14 15 15 15 13 11 9 7 6 6 6 6 4 3 1 0 0 0 0 0 0 0 0 0 0 0 0 0 0 0 0 0 0 0 0 0 0 0 0
11 11 12 12 12 12 12 12 11 10 8 7 6 6 6 5 4 1 0 0 0 0 0 0 0 0 0 0 0 0 0 0 0 0 0 0 0 0 0 0 0 0 0
11 11 11 10 9 9 10 10 9 9 7 6 6 5 4 4 3 1 0 0 0 0 0 0 0 0 0 0 0 0 0 0 0 0 0 0 0 0 0 0 0 0 0
12 12 13 11 7 7 9 10 10 9 6 4 4 4 3 3 2 1 1 0 0 0 0 0 0 0 0 0 0 0 0 0 0 0 0 0 0 0 0 0 0 0 0
14 13 12 11 8 7 8 10 11 9 6 5 4 4 4 3 2 2 2 1 0 1 1 0 0 0 0 0 0 0 0 0 0 0 0 0 0 0 0 0 0 0 0
12 10 10 10 10 8 6 7 8 9 8 7 6 6 5 4 3 3 2 1 0 1 1 0 0 0 0 0 0 0 0 0 0 0 0 0 0 0 0 0 0 0 0
9 7 7 9 9 7 5 3 4 6 8 9 7 6 5 4 3 3 2 0 0 1 1 0 0 0 0 0 0 0 0 0 0 0 0 0 0 0 0 0 0 0 0
7 6 6 7 7 6 4 2 2 5 7 7 5 4 3 3 3 2 1 0 0 0 0 0 0 0 0 0 0 0 0 0 0 0 0 0 0 0 0 0 0 0 0
6 6 5 5 6 5 3 1 2 3 4 4 3 2 2 2 2 1 1 0 0 0 0 0 0 0 0 0 0 0 0 0 0 0 0 0 0 0 0 0 0 0 0
5 5 5 4 4 4 2 1 1 2 2 2 1 1 1 1 1 0 0 0 0 0 0 0 0 0 0 0 0 0 0 0 0 0 0 0 0 0 0 0 0 0 0
Wind_Speed
2 1 1 2 2 2 2 2 2 3 2 2 3 4 4 4 4 4 4 10 12 12 13 14 13 12 11 11 11 10 10 9 9 8 8 8 8 9 9 9 9 8 8
1 1 1 1 1 1 2 2 3 3 2 2 3 3 3 3 3 4 4 7 12 13 13 13 13 13 12 12 11 11 10 10 9 9 9 9 9 9 9 9 9 9 8
1 1 1 1 1 1 1 1 2 1 1 2 2 3 3 3 3 4 4 4 5 11 13 13 12 12 12 12 12 11 11 10 10 9 9 9 9 9 9 9 9 9 8
2 1 1 1 1 1 1 1 1 1 1 1 2 2 2 2 3 3 3 4 4 4 8 12 13 12 12 12 12 12 11 11 10 10 10 9 10 9 9 9 9 9 9
2 2 1 2 1 1 1 1 1 1 2 2 2 2 2 2 2 3 3 4 4 4 4 8 12 12 13 12 12 11 11 12 11 11 10 10 10 10 10 10 10 10 9
2 1 1 1 1 1 1 1 1 1 1 2 2 2 2 2 1 2 3 3 3 4 5 5 5 6 11 11 11 11 11 11 11 11 11 10 11 10 10 10 10 10 10
2 1 1 1 1 1 2 2 1 1 1 0 1 2 2 1 1 2 2 2 2 3 3 4 4 4 4 9 10 10 10 10 9 9 9 9 9 9 9 9 10 10 10
2 2 1 1 1 1 1 1 1 0 0 0 1 1 2 3 2 1 1 1 2 2 2 4 4 4 4 3 6 9 9 9 9 9 8 8 7 7 7 7 8 8 7
2 1 1 1 1 1 1 1 1 2 1 1 1 2 1 2 2 2 1 1 1 1 2 2 3 4 5 4 4 7 9 8 9 10 9 8 8 7 7 7 8 8 8
2 2 1 1 1 1 1 1 1 1 2 1 1 1 2 2 1 2 3 2 2 2 2 2 2 3 4 4 5 7 9 8 9 10 9 9 8 8 8 8 8 9 9
1 1 1 1 1 1 1 0 1 1 2 2 1 1 1 0 1 2 2 3 2 2 2 3 2 2 3 2 3 5 7 8 8 9 9 9 9 9 9 9 10 9 9
1 1 1 1 1 1 1 1 2 2 1 2 1 1 2 1 2 2 2 2 2 3 2 2 2 2 2 2 4 5 6 7 7 8 8 9 9 9 10 10 9 9 9
1 2 1 1 1 1 1 1 1 1 1 1 1 1 2 2 2 2 2 2 2 2 2 2 2 2 2 2 3 5 6 7 8 8 9 9 9 10 10 10 10 10 9
2 2 1 1 1 1 1 1 1 1 1 1 1 1 1 1 1 2 2 2 1 2 2 3 2 2 1 2 3 4 4 6 7 9 9 9 9 9 9 9 9 9 9
2 1 1 1 1 1 1 1 1 1 1 1 1 1 1 2 1 1 1 2 2 2 3 3 2 2 2 2 3 3 3 6 8 8 8 8 8 9 9 9 9 9 8
1 1 1 1 1 1 1 1 1 1 1 2 1 1 1 2 1 1 1 1 1 2 3 2 3 3 2 3 3 3 4 7 7 7 7 7 7 8 8 9 9 9 9
1 1 1 1 1 1 1 1 1 1 1 1 1 1 2 1 1 1 0 0 1 2 3 3 2 2 2 2 2 2 3 3 3 5 6 6 6 7 7 8 8 8 8
2 1 1 1 1 1 1 1 1 1 1 1 2 2 2 2 1 1 1 1 2 2 2 3 3 2 2 2 2 2 2 2 2 4 5 6 6 6 6 7 7 7 8
2 2 2 2 2 1 1 2 2 2 2 2 2 2 3 2 2 2 2 2 2 2 2 2 3 2 2 2 2 2 2 2 2 3 4 4 5 5 5 6 6 7 7
2 2 2 2 2 1 2 2 2 1 2 2 2 3 3 3 4 3 3 3 2 2 2 2 3 2 2 2 1 2 2 2 2 2 2 3 4 5 5 5 7 7 7
3 2 2 2 2 2 2 2 2 2 2 2 3 3 3 4 5 4 3 3 2 2 2 2 3 2 2 2 2 2 2 3 3 2 1 2 2 2 3 5 6 7 7
2 2 2 2 2 3 3 3 3 3 3 3 3 3 3 4 5 5 5 4 4 4 3 3 3 3 4 3 3 2 2 1 3 2 1 2 1 2 3 3 5 7 7
2 2 3 3 3 4 5 4 4 3 3 3 3 3 3 3 3 3 4 5 5 6 6 4 4 5 4 4 3 3 3 3 4 3 1 3 2 3 3 4 6 7 7
3 3 3 3 3 4 5 4 4 2 2 2 3 4 4 4 3 3 3 3 4 5 5 4 4 5 5 5 5 5 4 3 3 3 2 2 2 3 3 3 7 8 8
3 3 3 4 4 4 5 4 4 2 2 3 4 4 4 4 5 4 3 4 5 5 6 6 6 6 7 6 4 2 2 2 3 3 2 2 2 2 2 3 5 8 8
3 3 3 3 4 4 4 4 4 2 3 3 4 4 6 5 5 5 4 4 5 6 4 5 5 6 5 5 5 4 4 3 2 3 2 2 2 1 2 2 2 3 4
Wind_Direction
193 202 212 218 229 206 203 208 210 212 222 216 210 204 211 216 205 202 205 209 210 208 206 207 208 210 210 209 208 209 209 210 212 214 215 216 215 217 218 221 222 220 220
184 190 195 226 242 221 208 201 206 207 213 210 219 216 215 217 207 207 209 212 215 213 213 211 211 210 213 212 210 212 213 215 216 218 219 220 220 223 222 221 221 219 218
191 184 189 234 253 248 231 208 219 201 216 219 228 231 221 217 212 211 213 212 216 217 215 213 214 214 216 217 217 217 217 219 221 221 220 222 222 223 224 220 218 216 218
180 169 197 242 247 249 236 216 208 201 221 227 237 246 241 230 222 216 212 209 207 214 218 218 219 219 219 221 223 221 222 223 222 222 223 223 222 220 220 220 217 214 217
193 178 210 244 238 240 242 238 210 199 210 237 247 251 245 238 228 218 213 214 213 207 206 216 220 222 223 223 226 225 224 223 224 224 225 226 225 220 219 220 219 218 218
196 180 206 256 246 237 252 232 213 205 205 223 243 266 267 254 231 216 222 220 218 213 206 206 214 224 226 225 226 228 229 226 225 225 226 227 228 225 223 221 222 223 222
186 161 227 245 246 225 233 219 195 193 250 17 55 335 319 291 253 221 221 214 218 220 205 205 208 213 225 225 224 226 230 229 226 223 224 225 225 225 226 227 226 224 223
197 186 198 224 232 230 259 236 158 153 271 105 127 76 344 334 315 295 231 210 228 232 219 213 210 212 221 217 219 218 220 224 225 223 220 218 218 218 220 225 221 219 221
207 210 209 213 216 187 215 221 189 164 208 271 157 150 154 248 301 309 285 245 248 251 258 239 226 220 217 213 216 220 217 220 228 229 223 217 218 219 219 225 226 222 221
221 219 205 201 213 196 198 218 178 187 170 224 270 215 194 181 185 298 306 284 258 248 252 256 246 229 222 218 222 221 217 217 228 229 228 223 218 219 221 226 230 229 224
243 235 216 207 213 206 179 216 202 194 181 192 209 225 231 222 187 187 272 291 287 261 246 244 246 241 232 218 223 225 219 219 225 228 227 227 225 222 225 231 232 233 230
274 273 244 218 219 204 169 208 222 215 211 204 212 193 179 192 213 195 232 259 271 271 257 247 239 242 235 223 234 235 230 225 224 228 229 230 230 226 229 229 232 233 232
264 266 273 240 226 196 169 186 193 221 218 219 233 223 212 214 199 191 200 243 268 279 284 269 241 237 238 225 243 245 238 232 225 226 229 230 230 230 231 230 232 231 231
234 234 226 216 199 171 176 159 189 230 212 222 253 249 240 250 210 199 193 197 271 294 291 277 276 246 247 235 251 236 243 240 230 230 229 229 228 229 230 230 230 230 228
226 220 199 186 186 182 195 188 208 232 225 226 237 244 250 262 255 221 196 179 189 262 280 276 286 281 255 239 256 246 247 248 243 239 233 232 230 231 231 228 227 226 224
230 219 223 227 243 234 214 196 232 239 228 256 238 247 265 257 262 251 210 181 183 199 255 272 261 277 272 270 267 251 253 258 250 244 238 236 236 237 236 232 229 227 226
227 222 211 214 229 241 228 196 249 253 238 266 261 231 255 244 252 272 228 223 224 195 240 274 266 276 263 268 279 260 256 249 252 243 241 239 242 243 241 237 231 226 228
223 223 200 206 228 234 229 217 248 256 244 256 256 244 258 256 244 244 233 244 240 225 215 263 282 276 261 255 259 266 281 276 255 251 247 245 245 244 238 235 228 227 230
211 206 196 205 226 236 237 240 239 238 238 247 245 239 250 248 250 245 235 236 241 253 224 235 270 268 267 282 293 289 293 291 281 268 255 252 253 253 243 235 229 230 231
204 215 208 203 217 237 250 249 241 240 253 261 258 254 256 247 241 239 239 237 231 242 246 247 267 276 269 271 249 272 297 292 288 286 273 266 258 254 249 241 234 233 234
207 205 192 210 235 239 249 246 239 237 244 253 257 254 246 256 263 251 240 227 218 222 235 244 260 272 270 278 261 248 266 278 280 259 271 279 268 257 248 247 241 234 232
192 195 204 209 229 249 259 250 230 232 236 238 246 255 259 267 271 269 267 252 232 226 231 232 248 254 258 251 251 249 248 281 283 260 222 270 241 252 250 237 239 237 234
200 202 222 217 229 247 250 253 246 229 230 231 235 244 261 274 264 256 273 281 275 268 251 233 236 246 246 239 231 244 235 228 245 250 215 260 250 256 253 249 238 240 237
210 217 224 231 236 249 249 255 255 237 239 250 247 236 237 262 258 247 254 274 277 274 269 253 240 246 247 239 223 226 230 245 267 260 192 235 248 248 260 252 239 237 239
227 228 226 226 235 253 252 246 233 229 238 255 259 252 241 245 260 252 242 262 278 280 278 275 275 269 271 266 247 220 221 216 264 267 223 208 244 266 265 257 248 240 242
234 233 239 236 235 242 250 238 219 215 242 255 263 261 255 252 256 247 234 242 261 270 281 294 293 290 281 275 256 214 205 212 238 261 236 201 234 244 285 268 252 253 249